TimeCDT,TemperatureF,Dew PointF,Humidity,Sea Level PressureIn,VisibilityMPH,Wind Direction,Wind SpeedMPH,Gust SpeedMPH,PrecipitationIn,Events,Conditions,WindDirDegrees,DateUTC
12:58 AM,74.8,72.5,92,30.03,10.0,ESE,8.1,-,N/A,,Clear,120,2013-08-23 05:58:00
1:58 AM,74.3,72.1,93,30.03,10.0,SE,8.1,-,N/A,,Clear,130,2013-08-23 06:58:00
2:58 AM,73.4,72.0,95,30.03,10.0,SE,5.8,-,N/A,,Clear,140,2013-08-23 07:58:00
3:58 AM,73.6,71.8,94,30.01,10.0,ESE,5.8,-,N/A,,Mostly Cloudy,120,2013-08-23 08:58:00
4:58 AM,72.9,71.6,96,30.02,10.0,East,4.6,-,N/A,,Partly Cloudy,100,2013-08-23 09:58:00
5:58 AM,72.3,71.1,96,30.02,10.0,ESE,3.5,-,N/A,,Clear,110,2013-08-23 10:58:00
6:58 AM,73.0,70.3,91,30.02,10.0,ESE,6.9,-,N/A,,Partly Cloudy,110,2013-08-23 11:58:00
7:58 AM,74.1,70.0,87,30.03,10.0,ESE,6.9,-,N/A,,Clear,120,2013-08-23 12:58:00
8:58 AM,76.8,71.1,82,30.04,10.0,SE,9.2,-,N/A,,Partly Cloudy,140,2013-08-23 13:58:00
9:58 AM,81.3,71.8,73,30.04,10.0,SE,11.5,-,N/A,,Clear,140,2013-08-23 14:58:00
10:58 AM,84.2,72.9,69,30.04,10.0,SE,10.4,-,N/A,,Clear,130,2013-08-23 15:58:00
11:58 AM,87.3,72.5,61,30.03,10.0,SSE,9.2,-,N/A,,Clear,160,2013-08-23 16:58:00
12:58 PM,89.8,71.1,54,30.01,10.0,SE,10.4,-,N/A,,Clear,130,2013-08-23 17:58:00
1:58 PM,92.5,70.2,48,29.99,10.0,SE,11.5,17.3,N/A,,Clear,130,2013-08-23 18:58:00
2:58 PM,92.3,70.0,48,29.97,10.0,SSE,10.4,-,N/A,,Partly Cloudy,150,2013-08-23 19:58:00
3:09 PM,91.4,69.8,49,30.01,10.0,SSE,11.5,-,N/A,,Scattered Clouds,160,2013-08-23 20:09:00
3:58 PM,93.2,70.9,48,29.96,10.0,ESE,15.0,-,N/A,,Partly Cloudy,110,2013-08-23 20:58:00
4:58 PM,91.9,70.0,48,29.96,10.0,ESE,12.7,-,N/A,,Clear,110,2013-08-23 21:58:00
5:58 PM,91.8,71.1,51,29.96,10.0,ESE,13.8,20.7,N/A,,Partly Cloudy,110,2013-08-23 22:58:00
6:58 PM,88.0,74.5,64,29.95,10.0,ESE,15.0,21.9,N/A,,Clear,120,2013-08-23 23:58:00
7:58 PM,85.5,74.3,69,29.95,10.0,ESE,12.7,-,N/A,,Clear,120,2013-08-24 00:58:00
8:58 PM,82.9,73.2,72,29.97,10.0,ESE,9.2,-,N/A,,Clear,110,2013-08-24 01:58:00
9:58 PM,81.1,73.4,77,29.99,10.0,ESE,12.7,-,N/A,,Clear,110,2013-08-24 02:58:00
10:58 PM,79.7,72.9,80,30.00,10.0,SE,11.5,-,N/A,,Clear,130,2013-08-24 03:58:00
11:58 PM,77.7,73.9,88,30.01,10.0,SE,9.2,-,N/A,,Clear,130,2013-08-24 04:58:00